PEGASUS DEB

Satellite information

Favourite Embed

Satellite Type and Status

DEBRISIN ORBIT

Key statistics

Satellite PEGASUS DEB at a glance.

Uptime

11371

Days in orbit

Revolutions

≈ 14.7

Per day

Orbit

LEO

Low Earth Orbit

Inclination

81.5

Latest

Satellite identification and parameters

Extended collection of information and parameters for PEGASUS DEB.

Object identification

Identified? True

Debris? True

Object name: PEGASUS DEB

International designator: 1994-029LN

Object number (NORAD): 24239

Object ID (CCSDS): 24239

Country: UNITED STATES OF AMERICA (US)

Current information (Y/N): Y

RCS size: SMALL

Orbital parameters

Period: 97.711 minutes

Inclination: 81.5132 deg

SMA: 7027.326 km

Apoapsis: 758.837 km

Periapsis: 539.545 km

RAAN: 165.3247 deg

Eccentricy: 0.0156028

Argument of periapsis: 230.0588 deg

Mean anomaly: 128.6827 deg

Mean motion: 14.73728896 rev/day

Mean motion (dot): 0.00005496 rev/day2

B* drag term: 0.00068956 1/REarth

Two-line elements (TLE)

Creation date: July 5, 2025, 5:45 p.m.

Reference frame: TEME

Reference center: EARTH

Epoch: July 5, 2025, 9 a.m. UTC

TLE line 0: 0 PEGASUS DEB

TLE line 1: 1 24239U 94029LN 25186.37514350 .00005496 00000-0 68956-3 0 9995

TLE line 2: 2 24239 81.5132 165.3247 0156028 230.0588 128.6827 14.73728896525054

Live tracking on map

Real-time ground track for satellite PEGASUS DEB.

In-orbit conjunctions

A list of the most updated potential collisions computed for object PEGASUS DEB.

Target Orbit TCA Probability of collision Miss distance Type
FENGYUN 1C DEB SSO 2025-01-08 01:50:51 0.0001480078 172.0 (m) DEBRIS
COSMOS 2251 DEB LEO 2024-11-13 07:15:46 0.00028621 746.0 (m) DEBRIS
CZ-6A DEB SSO 2024-09-10 15:57:37 0.0001115486 79.0 (m) DEBRIS
BLACK ARROW R/B LEO 2024-06-29 22:13:54 0.0002768674 606.0 (m) ROCKET BODY

Associated space launch

PEGASUS DEB was lifted into orbit during the mission ‘Pegasus HAPS | Space Test Experiments Platform 2 (STEP-2)’, on board a Pegasus HAPS space rocket.

The launch took place on May 19, 1994, 5:03 p.m. from Edwards Air Force Base.

For more information about the launch, click the button.

Launch to space Pegasus HAPS | Space Test Experiments Platform 2 (STEP-2)
Pegasus HAPS | Space Test Experiments Platform 2 (STEP-2)

Agency: N/A

Status: Launch Successful

Launch date: May 19, 1994, 5:03 p.m. UTC

Rocket: Pegasus HAPS

Launch pad: Edwards Air Force Base

Location: Air launch to orbit

...

Latest news about this satellite

There are no fresh news available about this satellite. Check back as we update our databases every day.


Newsletter sign-up

Weekly statistics, charts and insights to help you stay on top of the space industry.